Griffin-Spaldg Cnty AP, Griff, GA

8:40 AM EDT on October 23, 2017 (GMT -0400)
Griffin-Spaldg Cnty AP, Griff

Weather History for K6A2 - August, 2013

Change the Weather History Date:

Tuesday, August 13, 2013

  Actual Average (KFFC) Record (KFFC)
Temperature  
Mean Temperature 81 °F -  
Max Temperature 89 °F 86 °F 98 °F (2007)
Min Temperature 73 °F 64 °F 55 °F (2012)
Cooling Degree Days 16    
Growing Degree Days 31 (Base 50)    
Moisture  
Dew Point -    
Average Humidity    
Maximum Humidity    
Minimum Humidity    
Precipitation  
Precipitation 0.00 in - - ()
Sea Level Pressure  
Sea Level Pressure 29.99 in    
Wind  
Wind Speed 4 mph (West)    
Max Wind Speed 10 mph    
Max Gust Speed 25 mph    
Visibility 9 miles    
Events Thunderstorm    
Averages and records for this station are not official NWS values.
T = Trace of Precipitation, MM = Missing Value Source: NWS Daily Summary

Daily Weather History Graph

Daily Weather History Graph

Search for Another Location

Airport or City:

Trip Planner

Search our weather history database for the weather conditions in past years. The results will help you decide how hot, cold, wet, or windy it might be!

Date:

Astronomy

Aug. 13, 2013 Rise Set
Actual Time 6:58 AM EDT 8:24 PM EDT
Civil Twilight 6:32 AM EDT 8:50 PM EDT
Nautical Twilight 6:00 AM EDT 9:22 PM EDT
Astronomical Twilight 5:27 AM EDT 9:54 PM EDT
Moon 1:28 PM EDT (8/13) No Moon Set
Length of Visible Light 14h 18m
Length of Day
13h 26m
Waxing Crescent, 41% of the Moon is Illuminated
Aug 13
Waxing Crescent
Aug 14
First Quarter
Aug 20
Full
Aug 28
Last Quarter
Sep 5
New

Hourly Weather History & Observations

Time (EDT) Temp. Dew Point Humidity Pressure Visibility Wind Dir Wind Speed Gust Speed Precip Events Conditions
12:55 AM 73.4 °F - N/A% 30.07 in 10.0 mi Calm Calm - N/A   Clear
1:15 AM 73.4 °F - N/A% 30.06 in 10.0 mi Calm Calm - N/A   Clear
1:35 AM 73.4 °F - N/A% 30.06 in 10.0 mi Calm Calm - N/A   Clear
1:55 AM 73.4 °F - N/A% 30.05 in 10.0 mi West 3.5 mph - N/A   Clear
2:15 AM 73.4 °F - N/A% 30.03 in 10.0 mi West 3.5 mph - N/A   Clear
2:35 AM 73.4 °F - N/A% 30.02 in 10.0 mi West 3.5 mph - N/A   Clear
2:55 AM 73.4 °F - N/A% 30.01 in 10.0 mi West 3.5 mph - N/A   Clear
3:15 AM 73.4 °F - N/A% 30.00 in 10.0 mi Calm Calm - N/A   Clear
3:35 AM 73.4 °F - N/A% 30.00 in 10.0 mi Calm Calm - N/A   Clear
3:55 AM 73.4 °F - N/A% 30.00 in 10.0 mi Calm Calm - N/A   Clear
4:15 AM 73.4 °F - N/A% 30.00 in 10.0 mi SW 3.5 mph - N/A   Clear
4:35 AM 73.4 °F - N/A% 30.00 in 10.0 mi SSW 3.5 mph - N/A   Clear
4:55 AM 73.4 °F - N/A% 30.00 in 7.0 mi Calm Calm - N/A   Clear
5:15 AM 73.4 °F - N/A% 30.00 in 7.0 mi SW 3.5 mph - N/A   Scattered Clouds
5:35 AM 73.4 °F - N/A% 30.00 in 7.0 mi SW 4.6 mph - N/A   Overcast
5:55 AM 73.4 °F - N/A% 30.00 in 7.0 mi WSW 5.8 mph - N/A   Overcast
6:15 AM 73.4 °F - N/A% 30.01 in 2.5 mi West 8.1 mph - N/A   Overcast
6:35 AM 73.4 °F - N/A% 30.01 in 2.5 mi West 5.8 mph - N/A   Overcast
6:55 AM 73.4 °F - N/A% 30.02 in 3.0 mi West 6.9 mph - N/A   Overcast
7:15 AM 73.4 °F - N/A% 30.02 in 3.0 mi West 5.8 mph - N/A   Overcast
7:35 AM 73.4 °F - N/A% 30.02 in 4.0 mi West 8.1 mph - N/A   Overcast
7:55 AM 73.4 °F - N/A% 30.02 in 5.0 mi West 5.8 mph - N/A   Overcast
8:15 AM 77.0 °F - N/A% 30.02 in 7.0 mi WSW 6.9 mph - N/A   Mostly Cloudy
8:35 AM 77.0 °F - N/A% 30.03 in 7.0 mi West 6.9 mph - N/A   Mostly Cloudy
8:55 AM 77.0 °F - N/A% 30.03 in 10.0 mi West 6.9 mph - N/A   Overcast
9:15 AM 77.0 °F - N/A% 30.03 in 10.0 mi West 5.8 mph - N/A   Mostly Cloudy
9:35 AM 77.0 °F - N/A% 30.03 in 10.0 mi WSW 8.1 mph - N/A   Mostly Cloudy
9:55 AM 78.8 °F - N/A% 30.02 in 10.0 mi West 8.1 mph - N/A   Scattered Clouds
10:15 AM 78.8 °F - N/A% 30.03 in 10.0 mi West 8.1 mph - N/A   Scattered Clouds
10:35 AM 80.6 °F - N/A% 30.03 in 10.0 mi WNW 6.9 mph - N/A   Scattered Clouds
10:55 AM 80.6 °F - N/A% 30.04 in 10.0 mi West 9.2 mph - N/A   Mostly Cloudy
11:15 AM 82.4 °F - N/A% 30.04 in 10.0 mi West 10.4 mph - N/A   Scattered Clouds
11:35 AM 82.4 °F - N/A% 30.03 in 10.0 mi West 6.9 mph - N/A   Scattered Clouds
11:55 AM 80.6 °F - N/A% 30.03 in 10.0 mi West 6.9 mph - N/A   Scattered Clouds
12:15 PM 82.4 °F - N/A% 30.02 in 10.0 mi West 8.1 mph - N/A   Scattered Clouds
12:35 PM 84.2 °F - N/A% 30.02 in 10.0 mi WNW 10.4 mph 25.3 mph N/A   Scattered Clouds
12:55 PM 86.0 °F - N/A% 30.01 in 10.0 mi West 10.4 mph - N/A   Scattered Clouds
1:15 PM 84.2 °F - N/A% 30.01 in 10.0 mi West 5.8 mph - N/A   Scattered Clouds
1:35 PM 86.0 °F - N/A% 30.00 in 10.0 mi West 5.8 mph - N/A   Scattered Clouds
1:55 PM 84.2 °F - N/A% 30.00 in 10.0 mi West 8.1 mph - N/A   Mostly Cloudy
2:15 PM 87.8 °F - N/A% 30.00 in 10.0 mi West 6.9 mph - N/A   Mostly Cloudy
2:35 PM 86.0 °F - N/A% 29.99 in 10.0 mi NW 5.8 mph - N/A   Mostly Cloudy
2:55 PM 89.6 °F - N/A% 29.98 in 10.0 mi WNW 4.6 mph - N/A   Scattered Clouds
3:15 PM 89.6 °F - N/A% 29.97 in 10.0 mi WNW 8.1 mph - N/A   Scattered Clouds
3:35 PM 89.6 °F - N/A% 29.96 in 10.0 mi WSW 10.4 mph - N/A   Scattered Clouds
3:55 PM 89.6 °F - N/A% 29.95 in 10.0 mi West 6.9 mph - N/A   Scattered Clouds
4:15 PM 89.6 °F - N/A% 29.95 in 10.0 mi West 8.1 mph - N/A   Clear
4:35 PM 89.6 °F - N/A% 29.95 in 10.0 mi West 6.9 mph - N/A   Clear
4:55 PM 87.8 °F - N/A% 29.94 in 10.0 mi SSW 9.2 mph - N/A   Scattered Clouds
5:15 PM 82.4 °F - N/A% 29.94 in 10.0 mi SSW 6.9 mph - N/A   Mostly Cloudy
5:35 PM 82.4 °F - N/A% 29.94 in 10.0 mi SSW 6.9 mph - N/A Thunderstorm Thunderstorm
5:55 PM 84.2 °F - N/A% 29.94 in 10.0 mi SW 5.8 mph - N/A   Scattered Clouds
6:15 PM 82.4 °F - N/A% 29.94 in 10.0 mi SW 5.8 mph - N/A   Clear
6:35 PM 82.4 °F - N/A% 29.93 in 10.0 mi SSW 5.8 mph - N/A   Clear
6:55 PM 80.6 °F - N/A% 29.94 in 10.0 mi SSW 4.6 mph - N/A   Clear
7:55 PM 80.6 °F - N/A% 29.94 in 10.0 mi West 4.6 mph - N/A Thunderstorm Thunderstorm
8:15 PM 80.6 °F - N/A% 29.94 in 10.0 mi West 3.5 mph - N/A   Clear
8:35 PM 78.8 °F - N/A% 29.94 in 10.0 mi SW 3.5 mph - N/A   Clear
8:55 PM 78.8 °F - N/A% 29.94 in 10.0 mi Calm Calm - N/A   Mostly Cloudy
9:15 PM 78.8 °F - N/A% 29.95 in 10.0 mi WNW 10.4 mph - N/A   Mostly Cloudy
9:35 PM 78.8 °F - N/A% 29.95 in 10.0 mi WNW 8.1 mph - N/A   Mostly Cloudy
9:55 PM 77.0 °F - N/A% 29.96 in 10.0 mi West 5.8 mph - N/A   Overcast
10:15 PM 77.0 °F - N/A% 29.96 in 10.0 mi West 5.8 mph - N/A   Scattered Clouds
10:35 PM 77.0 °F - N/A% 29.96 in 10.0 mi West 6.9 mph - N/A   Clear
10:55 PM 77.0 °F - N/A% 29.96 in 10.0 mi West 6.9 mph - N/A   Scattered Clouds
11:15 PM 77.0 °F - N/A% 29.97 in 10.0 mi West 6.9 mph - N/A   Scattered Clouds
11:35 PM 77.0 °F - N/A% 29.96 in 10.0 mi West 6.9 mph - N/A   Scattered Clouds
11:55 PM 77.0 °F - N/A% 29.96 in 10.0 mi West 6.9 mph - N/A   Mostly Cloudy